TimeEDT,TemperatureF,Dew PointF,Humidity,Sea Level PressureIn,VisibilityMPH,Wind Direction,Wind SpeedMPH,Gust SpeedMPH,PrecipitationIn,Events,Conditions,WindDirDegrees,DateUTC
12:15 AM,46.2,41.4,83,29.76,10.0,West,12.7,24.2,N/A,,Overcast,280,2013-03-19 04:15:00
12:35 AM,43.9,40.1,87,29.77,4.0,WNW,16.1,31.1,N/A,,Overcast,290,2013-03-19 04:35:00
12:55 AM,43.0,40.1,90,29.78,4.0,West,9.2,-,N/A,,Overcast,280,2013-03-19 04:55:00
1:15 AM,43.0,39.4,87,29.79,10.0,West,11.5,-,N/A,,Overcast,280,2013-03-19 05:15:00
1:35 AM,42.4,36.5,79,29.80,10.0,WNW,13.8,20.7,N/A,,Overcast,300,2013-03-19 05:35:00
2:15 AM,41.5,34.2,75,29.82,10.0,West,16.1,20.7,N/A,,Overcast,280,2013-03-19 06:15:00
2:55 AM,40.6,31.6,70,29.85,10.0,West,15.0,19.6,N/A,,Overcast,280,2013-03-19 06:55:00
3:15 AM,40.3,31.1,70,29.85,10.0,West,9.2,19.6,N/A,,Overcast,270,2013-03-19 07:15:00
3:35 AM,40.1,30.0,67,29.85,10.0,West,9.2,17.3,N/A,,Overcast,260,2013-03-19 07:35:00
3:55 AM,39.6,29.8,68,29.86,10.0,WSW,9.2,-,N/A,,Overcast,250,2013-03-19 07:55:00
4:15 AM,38.8,28.9,68,29.86,10.0,WSW,8.1,-,N/A,,Mostly Cloudy,240,2013-03-19 08:15:00
4:35 AM,39.4,28.9,66,29.86,10.0,WSW,10.4,17.3,N/A,,Overcast,240,2013-03-19 08:35:00
4:55 AM,38.5,29.1,69,29.86,10.0,WSW,10.4,-,N/A,,Scattered Clouds,240,2013-03-19 08:55:00
5:15 AM,39.2,29.3,68,29.86,10.0,SW,10.4,-,N/A,,Mostly Cloudy,230,2013-03-19 09:15:00
5:35 AM,38.7,29.7,70,29.87,10.0,WSW,11.5,18.4,N/A,,Overcast,240,2013-03-19 09:35:00
5:55 AM,38.3,29.7,71,29.87,10.0,SW,6.9,-,N/A,,Scattered Clouds,230,2013-03-19 09:55:00
6:15 AM,38.3,30.2,73,29.88,10.0,SW,9.2,-,N/A,,Mostly Cloudy,220,2013-03-19 10:15:00
6:35 AM,38.5,30.4,73,29.88,10.0,SW,8.1,-,N/A,,Overcast,220,2013-03-19 10:35:00
6:55 AM,38.5,30.7,74,29.89,10.0,WSW,12.7,16.1,N/A,,Overcast,240,2013-03-19 10:55:00
7:15 AM,38.5,31.1,75,29.89,10.0,WSW,10.4,-,N/A,,Overcast,240,2013-03-19 11:15:00
7:35 AM,38.1,30.2,73,29.88,10.0,WSW,11.5,25.3,N/A,,Mostly Cloudy,240,2013-03-19 11:35:00
7:55 AM,37.6,30.6,76,29.88,10.0,WSW,12.7,16.1,N/A,,Mostly Cloudy,240,2013-03-19 11:55:00
8:15 AM,38.5,30.0,72,29.88,10.0,WSW,19.6,25.3,N/A,,Scattered Clouds,240,2013-03-19 12:15:00
8:35 AM,37.6,29.5,73,29.88,10.0,WSW,15.0,20.7,N/A,,Scattered Clouds,250,2013-03-19 12:35:00
8:55 AM,38.5,30.6,73,29.89,10.0,WSW,10.4,-,N/A,,Scattered Clouds,250,2013-03-19 12:55:00
9:15 AM,39.6,30.0,69,29.89,10.0,WSW,13.8,18.4,N/A,,Scattered Clouds,250,2013-03-19 13:15:00
9:35 AM,38.3,24.8,58,29.88,10.0,West,24.2,33.4,N/A,,Clear,260,2013-03-19 13:35:00
9:55 AM,39.0,24.3,55,29.89,10.0,WSW,24.2,31.1,N/A,,Clear,250,2013-03-19 13:55:00
10:15 AM,39.7,24.4,54,29.89,10.0,WSW,19.6,29.9,N/A,,Clear,250,2013-03-19 14:15:00
10:35 AM,39.7,24.4,54,29.89,10.0,WSW,20.7,28.8,N/A,,Scattered Clouds,250,2013-03-19 14:35:00
10:55 AM,40.5,24.1,52,29.89,10.0,WSW,24.2,28.8,N/A,,Scattered Clouds,250,2013-03-19 14:55:00
11:15 AM,40.6,22.3,48,29.90,10.0,WSW,20.7,31.1,N/A,,Scattered Clouds,250,2013-03-19 15:15:00
11:35 AM,41.2,21.2,45,29.90,10.0,West,21.9,29.9,N/A,,Scattered Clouds,260,2013-03-19 15:35:00
11:55 AM,41.4,22.6,47,29.91,10.0,WSW,20.7,31.1,N/A,,Scattered Clouds,250,2013-03-19 15:55:00
12:15 PM,40.8,16.5,37,29.92,10.0,West,23.0,39.1,N/A,,Scattered Clouds,270,2013-03-19 16:15:00
12:35 PM,41.2,18.3,40,29.91,10.0,WSW,18.4,27.6,N/A,,Clear,250,2013-03-19 16:35:00
12:55 PM,41.7,21.6,45,29.92,10.0,West,27.6,33.4,N/A,,Scattered Clouds,260,2013-03-19 16:55:00
1:15 PM,41.7,17.8,38,29.93,10.0,West,23.0,31.1,N/A,,Clear,270,2013-03-19 17:15:00
1:35 PM,42.3,18.7,39,29.91,10.0,WSW,18.4,27.6,N/A,,Clear,250,2013-03-19 17:35:00
1:55 PM,42.8,17.8,37,29.92,10.0,WSW,24.2,31.1,N/A,,Clear,250,2013-03-19 17:55:00
2:15 PM,43.3,17.4,35,29.92,10.0,WSW,25.3,35.7,N/A,,Clear,240,2013-03-19 18:15:00
2:35 PM,44.2,16.3,33,29.92,10.0,West,27.6,38.0,N/A,,Clear,260,2013-03-19 18:35:00
2:55 PM,44.8,16.5,32,29.92,10.0,West,21.9,29.9,N/A,,Clear,280,2013-03-19 18:55:00
3:15 PM,45.9,17.4,32,29.92,10.0,WSW,28.8,36.8,N/A,,Scattered Clouds,250,2013-03-19 19:15:00
3:35 PM,44.8,14.9,30,29.92,10.0,West,25.3,36.8,N/A,,Scattered Clouds,280,2013-03-19 19:35:00
3:55 PM,45.1,14.7,29,29.94,10.0,West,26.5,40.3,N/A,,Clear,280,2013-03-19 19:55:00
4:15 PM,45.3,14.5,29,29.94,10.0,West,29.9,40.3,N/A,,Clear,270,2013-03-19 20:15:00
4:35 PM,45.3,13.6,28,29.95,10.0,West,25.3,35.7,N/A,,Clear,270,2013-03-19 20:35:00
4:55 PM,45.0,14.5,29,29.96,10.0,WSW,21.9,38.0,N/A,,Clear,250,2013-03-19 20:55:00
5:15 PM,44.6,12.9,28,29.97,10.0,West,27.6,38.0,N/A,,Clear,270,2013-03-19 21:15:00
5:35 PM,45.1,12.4,27,29.97,10.0,West,27.6,34.5,N/A,,Clear,270,2013-03-19 21:35:00
5:55 PM,45.0,12.6,27,29.97,10.0,West,24.2,38.0,N/A,,Clear,270,2013-03-19 21:55:00
6:15 PM,44.4,11.3,26,29.98,10.0,West,31.1,40.3,N/A,,Clear,270,2013-03-19 22:15:00
6:35 PM,43.0,8.6,24,29.99,10.0,West,18.4,34.5,N/A,,Clear,280,2013-03-19 22:35:00
6:55 PM,42.8,10.8,27,29.99,10.0,WNW,23.0,32.2,N/A,,Clear,290,2013-03-19 22:55:00
7:15 PM,42.1,7.7,24,29.99,10.0,West,21.9,33.4,N/A,,Clear,280,2013-03-19 23:15:00
7:35 PM,40.6,7.5,26,29.99,10.0,West,12.7,20.7,N/A,,Clear,280,2013-03-19 23:35:00
7:55 PM,38.8,10.8,32,30.01,10.0,West,16.1,24.2,N/A,,Clear,260,2013-03-19 23:55:00
8:15 PM,39.2,9.0,29,30.02,10.0,West,12.7,18.4,N/A,,Clear,280,2013-03-20 00:15:00
8:35 PM,39.0,9.9,30,30.02,10.0,West,17.3,24.2,N/A,,Clear,270,2013-03-20 00:35:00
8:55 PM,38.3,10.4,32,30.03,10.0,West,12.7,20.7,N/A,,Clear,280,2013-03-20 00:55:00
9:35 PM,36.1,11.3,36,30.05,10.0,West,9.2,-,N/A,,Clear,270,2013-03-20 01:35:00
9:55 PM,36.9,10.9,34,30.06,10.0,West,8.1,17.3,N/A,,Clear,270,2013-03-20 01:55:00
10:15 PM,36.0,11.8,37,30.06,10.0,West,9.2,-,N/A,,Clear,280,2013-03-20 02:15:00
10:35 PM,35.4,12.6,39,30.06,10.0,West,8.1,-,N/A,,Clear,270,2013-03-20 02:35:00
10:55 PM,34.3,13.3,42,30.06,10.0,West,6.9,-,N/A,,Clear,270,2013-03-20 02:55:00
11:15 PM,35.1,12.9,40,30.06,10.0,West,9.2,-,N/A,,Clear,280,2013-03-20 03:15:00
11:35 PM,34.9,13.1,41,30.06,10.0,West,9.2,-,N/A,,Clear,270,2013-03-20 03:35:00
11:55 PM,34.2,14.2,44,30.06,10.0,West,8.1,-,N/A,,Clear,270,2013-03-20 03:55:00